| time (UTC) | temp C | wind direction | speed KPH | gust KPH | rain 1hr cm | rain 24hr cm | rain mn cm | humidity % | barometer mb |
| 20260504223110 | 21 | 317 | 3.2 | 3.2 | 0.00 | 0.00 | 0.00 | 34 | 1014.4 |
| 20260504222109 | 21 | 332 | 1.6 | 3.2 | 0.00 | 0.00 | 0.00 | 34 | 1014.4 |
| 20260504221110 | 21 | 278 | 3.2 | 3.2 | 0.00 | 0.00 | 0.00 | 33 | 1014.6 |
| 20260504220110 | 22 | 322 | 0.0 | 0.0 | 0.00 | 0.00 | 0.00 | 34 | 1014.4 |
| 20260504215109 | 22 | 92 | 1.6 | 1.6 | 0.00 | 0.00 | 0.00 | 33 | 1014.4 |
| 20260504214110 | 22 | 315 | 3.2 | 3.2 | 0.00 | 0.00 | 0.00 | 32 | 1014.4 |
| 20260504213111 | 22 | 236 | 1.6 | 3.2 | 0.00 | 0.00 | 0.00 | 32 | 1014.4 |
| 20260504212110 | 21 | 308 | 1.6 | 1.6 | 0.00 | 0.00 | 0.00 | 33 | 1014.5 |
| 20260504211111 | 22 | 265 | 4.8 | 6.4 | 0.00 | 0.00 | 0.00 | 31 | 1014.5 |
| 20260504210111 | 22 | 316 | 1.6 | 3.2 | 0.00 | 0.00 | 0.00 | 34 | 1014.3 |
| 20260504205111 | 22 | 329 | 1.6 | 1.6 | 0.00 | 0.00 | 0.00 | 32 | 1014.4 |
| 20260504204111 | 22 | 318 | 3.2 | 4.8 | 0.00 | 0.00 | 0.00 | 32 | 1014.3 |
| 20260504203110 | 23 | 293 | 3.2 | 3.2 | 0.00 | 0.00 | 0.00 | 32 | 1014.5 |
| 20260504202110 | 22 | 318 | 4.8 | 9.7 | 0.00 | 0.00 | 0.00 | 31 | 1014.4 |
| 20260504201110 | 23 | 338 | 3.2 | 4.8 | 0.00 | 0.00 | 0.00 | 31 | 1014.5 |
| 20260504200110 | 22 | 175 | 3.2 | 4.8 | 0.00 | 0.00 | 0.00 | 31 | 1014.4 |
| 20260504195110 | 22 | 275 | 4.8 | 6.4 | 0.00 | 0.00 | 0.00 | 31 | 1014.6 |
| 20260504194108 | 22 | 279 | 1.6 | 3.2 | 0.00 | 0.00 | 0.00 | 31 | 1014.7 |
| 20260504193110 | 22 | 286 | 1.6 | 3.2 | 0.00 | 0.00 | 0.00 | 29 | 1014.7 |
| 20260504192109 | 22 | 331 | 3.2 | 6.4 | 0.00 | 0.00 | 0.00 | 32 | 1014.5 |
| 20260504191109 | 22 | 318 | 4.8 | 6.4 | 0.00 | 0.00 | 0.00 | 32 | 1014.6 |
| 20260504190110 | 22 | 293 | 4.8 | 4.8 | 0.00 | 0.00 | 0.00 | 30 | 1014.8 |
| 20260504185109 | 22 | 276 | 4.8 | 6.4 | 0.00 | 0.00 | 0.00 | 31 | 1014.9 |
| 20260504184109 | 21 | 292 | 6.4 | 6.4 | 0.00 | 0.00 | 0.00 | 30 | 1015.2 |
| 20260504183110 | 22 | 275 | 3.2 | 3.2 | 0.00 | 0.00 | 0.00 | 29 | 1015.0 |
| 20260504182110 | 22 | 314 | 4.8 | 4.8 | 0.00 | 0.00 | 0.00 | 33 | 1015.3 |
| 20260504181109 | 22 | 298 | 1.6 | 3.2 | 0.00 | 0.00 | 0.00 | 30 | 1015.2 |
| 20260504180110 | 21 | 287 | 1.6 | 3.2 | 0.00 | 0.00 | 0.00 | 31 | 1015.1 |
| 20260504175110 | 21 | 302 | 4.8 | 4.8 | 0.00 | 0.00 | 0.00 | 32 | 1015.2 |
| 20260504174111 | 21 | 259 | 3.2 | 3.2 | 0.00 | 0.00 | 0.00 | 34 | 1015.1 |
| 20260504173110 | 21 | 312 | 3.2 | 3.2 | 0.00 | 0.00 | 0.00 | 31 | 1015.3 |
| 20260504172109 | 21 | 311 | 3.2 | 4.8 | 0.00 | 0.00 | 0.00 | 31 | 1015.3 |
| 20260504171111 | 21 | 285 | 6.4 | 11.3 | 0.00 | 0.00 | 0.00 | 32 | 1015.5 |
| 20260504170111 | 21 | 313 | 1.6 | 3.2 | 0.00 | 0.00 | 0.00 | 35 | 1015.8 |
| 20260504160111 | 20 | 221 | 4.8 | 6.4 | 0.00 | 0.00 | 0.00 | 36 | 1016.0 |
| 20260504151110 | 18 | 322 | 1.6 | 1.6 | 0.00 | 0.00 | 0.00 | 36 | 1016.8 |
| 20260504150110 | 18 | 282 | 1.6 | 4.8 | 0.00 | 0.00 | 0.00 | 37 | 1016.7 |
| 20260504141110 | 17 | 316 | 1.6 | 1.6 | 0.00 | 0.00 | 0.00 | 40 | 1017.2 |
| 20260504140110 | 18 | 286 | 6.4 | 11.3 | 0.00 | 0.00 | 0.00 | 38 | 1017.3 |
| 20260504130110 | 15 | 312 | 1.6 | 1.6 | 0.00 | 0.00 | 0.00 | 43 | 1018.0 |
| 20260504120110 | 11 | 315 | 1.6 | 3.2 | 0.00 | 0.00 | 0.00 | 50 | 1018.6 |
| 20260504110109 | 10 | 306 | 0.0 | 1.6 | 0.00 | 0.00 | 0.00 | 54 | 1018.3 |
| 20260504100110 | 6 | 318 | 0.0 | 0.0 | 0.00 | 0.00 | 0.00 | 68 | 1018.3 |
| 20260504090109 | 6 | 278 | 0.0 | 1.6 | 0.00 | 0.00 | 0.00 | 69 | 1018.2 |
| 20260504081109 | 6 | 318 | 0.0 | 0.0 | 0.00 | 0.00 | 0.00 | 70 | 1018.4 |
| 20260504080110 | 6 | 319 | 0.0 | 0.0 | 0.00 | 0.00 | 0.00 | 67 | 1018.3 |
| 20260504070110 | 6 | 320 | 0.0 | 0.0 | 0.00 | 0.00 | 0.00 | 62 | 1018.3 |
| 20260504060111 | 6 | 291 | 1.6 | 1.6 | 0.00 | 0.00 | 0.00 | 67 | 1018.3 |
| 20260504050110 | 5 | 315 | 0.0 | 0.0 | 0.00 | 0.00 | 0.00 | 70 | 1018.4 |
| 20260504045110 | 3 | 318 | 0.0 | 0.0 | 0.00 | 0.00 | 0.00 | 79 | 1018.3 |
| 20260504044110 | 2 | 324 | 0.0 | 0.0 | 0.00 | 0.00 | 0.00 | 82 | 1018.3 |
| 20260504043109 | 2 | 324 | 0.0 | 0.0 | 0.00 | 0.00 | 0.00 | 82 | 1018.5 |
| 20260504042111 | 2 | 319 | 0.0 | 0.0 | 0.00 | 0.00 | 0.00 | 83 | 1018.3 |
| 20260504041109 | 2 | 317 | 0.0 | 0.0 | 0.00 | 0.00 | 0.00 | 83 | 1018.1 |
| 20260504040111 | 2 | 320 | 0.0 | 0.0 | 0.00 | 0.00 | 0.00 | 83 | 1018.1 |
| 20260504035110 | 2 | 323 | 0.0 | 0.0 | 0.00 | 0.00 | 0.08 | 81 | 1018.1 |
| 20260504034109 | 2 | 325 | 0.0 | 0.0 | 0.00 | 0.00 | 0.08 | 77 | 1018.0 |
| 20260504033109 | 2 | 319 | 0.0 | 0.0 | 0.00 | 0.00 | 0.08 | 81 | 1018.0 |
| 20260504032110 | 2 | 314 | 0.0 | 0.0 | 0.00 | 0.00 | 0.08 | 78 | 1018.0 |
| 20260504031111 | 2 | 314 | 0.0 | 0.0 | 0.00 | 0.00 | 0.08 | 78 | 1018.0 |
| 20260504030110 | 2 | 316 | 0.0 | 0.0 | 0.00 | 0.00 | 0.08 | 79 | 1018.0 |
| 20260504025109 | 2 | 316 | 0.0 | 0.0 | 0.00 | 0.00 | 0.08 | 79 | 1017.9 |
| 20260504024110 | 2 | 318 | 0.0 | 0.0 | 0.00 | 0.00 | 0.08 | 77 | 1017.8 |
| 20260504023109 | 3 | 320 | 0.0 | 0.0 | 0.00 | 0.00 | 0.08 | 77 | 1017.8 |
| 20260504022109 | 3 | 310 | 0.0 | 0.0 | 0.00 | 0.00 | 0.08 | 77 | 1017.8 |
| 20260504021111 | 3 | 315 | 0.0 | 0.0 | 0.00 | 0.00 | 0.08 | 77 | 1017.8 |
| 20260504020109 | 3 | 315 | 0.0 | 0.0 | 0.00 | 0.00 | 0.08 | 76 | 1017.6 |
| 20260504015109 | 3 | 314 | 0.0 | 0.0 | 0.00 | 0.00 | 0.08 | 75 | 1017.6 |
| 20260504014110 | 3 | 315 | 0.0 | 0.0 | 0.00 | 0.00 | 0.08 | 74 | 1017.7 |
| 20260504013111 | 4 | 314 | 0.0 | 0.0 | 0.00 | 0.00 | 0.08 | 71 | 1017.7 |
| 20260504012109 | 4 | 315 | 0.0 | 0.0 | 0.00 | 0.00 | 0.08 | 69 | 1017.5 |
| 20260504011110 | 5 | 313 | 0.0 | 0.0 | 0.00 | 0.00 | 0.08 | 69 | 1017.6 |
| 20260504010109 | 5 | 315 | 0.0 | 0.0 | 0.00 | 0.00 | 0.08 | 66 | 1017.4 |
| 20260504005110 | 5 | 300 | 0.0 | 0.0 | 0.00 | 0.00 | 0.08 | 65 | 1017.0 |
| 20260504004110 | 6 | 315 | 0.0 | 0.0 | 0.00 | 0.00 | 0.08 | 63 | 1017.1 |
| 20260504003109 | 6 | 312 | 0.0 | 0.0 | 0.00 | 0.00 | 0.08 | 60 | 1017.0 |
| 20260504002111 | 7 | 312 | 0.0 | 0.0 | 0.00 | 0.00 | 0.08 | 60 | 1016.8 |
| 20260504001111 | 7 | 312 | 0.0 | 0.0 | 0.00 | 0.00 | 0.08 | 54 | 1016.7 |
| 20260504000110 | 8 | 312 | 0.0 | 0.0 | 0.00 | 0.00 | 0.08 | 50 | 1016.5 |
| 20260503235109 | 9 | 313 | 0.0 | 0.0 | 0.00 | 0.00 | 0.08 | 47 | 1016.7 |
| 20260503234109 | 10 | 313 | 0.0 | 0.0 | 0.00 | 0.00 | 0.08 | 47 | 1016.3 |
| 20260503233110 | 10 | 309 | 1.6 | 1.6 | 0.00 | 0.00 | 0.08 | 46 | 1016.2 |
| 20260503232111 | 10 | 315 | 0.0 | 1.6 | 0.00 | 0.00 | 0.08 | 42 | 1016.3 |
| 20260503231111 | 10 | 315 | 1.6 | 1.6 | 0.00 | 0.00 | 0.08 | 43 | 1016.1 |
| 20260503230110 | 10 | 326 | 4.8 | 4.8 | 0.00 | 0.00 | 0.08 | 41 | 1016.1 |
| 20260503225115 | 10 | 310 | 4.8 | 6.4 | 0.00 | 0.00 | 0.08 | 41 | 1016.0 |
| 20260503224111 | 10 | 322 | 1.6 | 3.2 | 0.00 | 0.00 | 0.08 | 44 | 1015.9 |